Location: Unspecified
(0.0000°N, 0.0000°E)
Time: 10:35:06
(UTC+00:00)

SRMSAT - Pass Details

Date: 13 December 2017
Orbit: 849 x 866 km, 20.0° (Epoch: 21 January)

Event Time Altitude Azimuth Distance (km) Brightness Sun altitude
Rises 18:32:39 0° 249° (WSW) 3,401 ? -8.8°
Reaches altitude 10° 18:36:22 10° 227° (SW) 2,464 ? -9.6°
Maximum altitude 18:39:42 15° 192° (SSW) 2,115 ? -10.4°
Drops below altitude 10° 18:43:01 10° 158° (SSE) 2,462 ? -11.2°
Sets 18:46:44 0° 135° (SE) 3,398 ? -12.0°
